IRIDIUM 33 DEB, 36028

Orbit data source: Space-Track

IRIDIUM 33 DEB, 36028 is space debris in LEO originally from a launch on Sun, 14 Sep 1997 UTC launched from the Tyuratam Missile And Space Complex (TTMTR). The debris from Iridium 33, an American commercial communications satellite, has been tracked extensively since its accidental collision with the defunct Russian satellite Cosmos 2251 in 2009. This event, occurring at high speed in low Earth orbit (LEO), generated thousands of pieces of space debris, significantly increasing the risk of further collisions. The Iridium 33 debris cloud has impacted space traffic management and orbital debris mitigation strategies, making it a subject of ongoing study in space situational awareness.

Loading next visibility...
Identifier
36028, 1997-051VK
Orbit
LEO
Country
Flag of USUS
Related business
Manufacturer
Unknown
Mission
Spacecraft
Bus & Motor
Unknown
Mass
Unknown
Launch date (UTC)
1997-09-14 (29 years ago)
Launch vehicle
Unknown
Launch site
Tyuratam Missile And Space Complex (TTMTR)
Object type
Payload
Rocket body
Debris
Shape & HBR
Unknown shape, 0.1 m
Radar Cross Section
Small (<0.1 m²)

Expand to show TLE details & history
Last TLE update: 15 hours ago

TLE from 15 hours ago
0 IRIDIUM 33 DEB
1 36028U 97051VK  26208.69950991  .00027161  00000-0  18097-2 0  9991
2 36028  86.3153 198.8867 0011556 313.3248  46.7023 15.06917596905304
Epoch: 2026-07-27T16:47Z
TLE epoch observation values (Epoch: 2026-07-27T16:47:17.656Z)
Latitude
-0.00006°
Longitude
1.68379°
Altitude
543.294 km
Speed
7.594 km/s
True Right ascension
13h 15m 32s
True Declination
0° 00' 00"
Sunlit
Object was in daylight at epoch
Visualization orbit readout
Latitude
Unknown
Longitude
Unknown
Altitude
Unknown
Speed
Unknown
Apparent Right ascension
Unknown
Apparent Declination
Unknown
Sunlit
N/A
Visualization observer readout
Local Sidereal Time
20:51:59
Azimuth
Unknown
Elevation
Unknown
Doppler factor
Unknown
Orbital elements
Apogee altitude
550.487 km
Perigee altitude
534.492 km
Semi-major axis
6,920.627 km
Eccentricity
0.00116
Inclination
86.3153°
RAAN
198.8867°
Arg. of periapsis
313.3248°
True anomaly
46.79877°
Mean anomaly
46.7023°
Eccentric anomaly
46.75053°
Mean motion
3.76986 °/min
Orbital period
95.49 mins
BSTAR
0.0018097
Loading maneuver chart data...
Computing Atmospheric mass density...
Loading historical data...
Loading historical data...
Loading historical data...
Loading historical data...
Loading historical data...
Loading historical data...
Loading historical data...

Documentation

Showing up to 5 results
|